Regional Weather Roundup
Issued by NWS Northern Indiana

Home | Current Version | Previous Version | Text Only | Print | Product List | Glossary On
Versions: 1 2 3 4 5 6 7 8 9 10 11 12 13 14 15 16 17 18 19 20 21 22 23 24 25 26 27 28 29 30 31 32 33 34 35 36 37 38 39 40 41 42 43 44 45 46 47 48 49 50
000
ASUS43 KIWX 281910
RWRIWX

KIWX WEATHER ROUNDUP
NATIONAL WEATHER SERVICE NORTHERN INDIANA
300 PM EDT SAT MAR 28 2015

NOTE: "FAIR" INDICATES FEW OR NO CLOUDS BELOW 12,000 FEET WITH NO
SIGNIFICANT WEATHER AND/OR OBSTRUCTIONS TO VISIBILITY.

* THESE STATIONS ARE NOT UNDER NWS QUALITY CONTROL. THEY ALSO MAY NOT
  REPORT WEATHER SUCH AS PRECIPITATION OR FOG.

INZ001>027-282000-
NORTHERN INDIANA

CITY           SKY/WX    TMP DP  RH WIND       PRES   REMARKS
VALPARAISO     SUNNY     35   7  31 NE9       30.31F WCI  28
MICHIGAN CITY* SUNNY     30  10  43 N9        30.34S WCI  22
LAPORTE*       SUNNY     36   9  32 N3        30.32S
KNOX*            N/A     34 -27   6 CALM      30.31S
SOUTH BEND     SUNNY     34   5  29 SW3       30.31F
GOSHEN         SUNNY     33   5  30 CALM      30.29F
MONTICELLO*    SUNNY     33  11  40 CALM      30.32S
LOGANSPORT*    SUNNY     32  10  40 S5        30.32F WCI  27
ROCHESTER*     SUNNY     36  10  35 CALM      30.31F
WARSAW*        SUNNY     32  10  40 CALM      30.29F
ANGOLA*        SUNNY     30   9  40 VRB5      30.27F WCI  25
FORT WAYNE     MOSUNNY   32   7  35 CALM      30.30F
HUNTINGTON*    SUNNY     32   7  34 N5        30.30F WCI  28
PERU/GRISSOM   SUNNY     32   8  36 SE6       30.29F WCI  26
MARION*        SUNNY     32  10  40 N5        30.31S WCI  27

$$
INZ028>050-282000-
CENTRAL INDIANA

CITY           SKY/WX    TMP DP  RH WIND       PRES   REMARKS
LAFAYETTE      SUNNY     34   9  35 CALM      30.32F
KOKOMO*          N/A     34  12  40 N6        30.31F WCI  29
MUNCIE*        SUNNY     32  14  47 N8        30.29F WCI  25
INDIANAPOLIS   SUNNY     36   9  32 VRB5      30.28F

$$
MIZ043>046-050>051-056>058-064>065-071>073-077>080-282000-
SOUTHWEST LOWER MICHIGAN

CITY           SKY/WX    TMP DP  RH WIND       PRES   REMARKS
BATTLE CREEK   SUNNY     35   2  24 N6        30.28F WCI  30
BENTON HARBOR  SUNNY     26  11  52 VRB7      30.33F WCI  18
COLDWATER*     SUNNY     32   4  30 CALM      30.28F
HILLSDALE*     SUNNY     32   4  31 N3        30.25F
HOLLAND        SUNNY     31  12  45 W10       30.32F WCI  22
GRAND RAPIDS   SUNNY     32   3  29 VRB6      30.29F WCI  26
KALAMAZOO      SUNNY     33   2  26 N5        30.29F WCI  29
STURGIS*       SUNNY     30   5  34 CALM      30.28F
THREE RIVERS*  FAIR      33   3  28 CALM      30.29F

$$
OHZ001>008-015>018-024>025-282000-
NORTHWEST OHIO

CITY           SKY/WX    TMP DP  RH WIND       PRES   REMARKS
WAUSEON*       FAIR      32   9  37 NE8G15    30.28F WCI  25
DEFIANCE       SUNNY     34  12  40 NW9G17    30.30F WCI  27
FINDLAY        PTSUNNY   31  10  41 NE8       30.28S WCI  23
TOLEDO EXPRESS MOSUNNY   30  10  43 NW10      30.28F WCI  21
TOLEDO METCALF SUNNY     32   9  38 NE5       30.29F WCI  27
LIMA           PTSUNNY   30  13  49 N10       30.28S WCI  21

$$
AND FOR LAKE MICHIGAN COASTAL AND OPEN LAKE BUOY OBSERVATIONS

STATION/POSITION TEMP    WIND        PRES    VSBY  WAVE
                 AIR SEA DIR/SP/G                  HT/PER
                 (F)     (DEG/KT/KT) (MB)    (MI)  (FT/S)
CALUMET HARBOR    27      10/  7/ 10 1026.6R
MICHIGAN CITY     26     330/  9/ 10   N/A
BURNS HARBOR      25     360/  6/ 10 1028.1S
SAINT JOSEPH      25     290/  7/  9 1027.4S

$$
&&



USA.gov is the U.S. government's official web portal to all federal, state and local government web resources and services.